Regional Weather Roundup
Issued by NWS

Home | Current Version | Previous Version | Text Only | Print | Product List | Glossary Off
Versions: 1 2 3 4 5 6 7 8 9 10 11 12 13 14 15 16 17 18 19 20 21 22 23 24 25 26 27 28 29 30 31 32 33 34 35 36 37 38 39 40 41 42 43 44 45 46 47 48 49 50

109
ASUS43 KLSX 110010
RWRMO

WEATHER SUMMARY FOR MISSOURI
NATIONAL WEATHER SERVICE SPRINGFIELD MO
600 PM CST WED FEB 10 2016

NOTE: "FAIR" INDICATES FEW OR NO CLOUDS BELOW 12,000 FEET WITH NO
       SIGNIFICANT WEATHER AND/OR OBSTRUCTIONS TO VISIBILITY.
       CURRENT SKY AND/OR WEATHER CONDITIONS ARE NOT AVAILABLE FOR
       CHILLICOTHE AND FARMINGTON.

MOZ001>031-035>038-043-044-053-054-110100-
...NORTHERN AND WESTERN MISSOURI...

CITY           SKY/WX    TMP DP  RH WIND       PRES   REMARKS
KANSAS CTY INT PTCLDY    44  22  41 E7        29.94R
6HR MIN TEMP:  37; 6HR MAX TEMP:  49;

KANSAS C DTWN  CLEAR     45  21  38 E9        29.94S
6HR MIN TEMP:  39; 6HR MAX TEMP:  50;

LEE`S SUMMIT   CLEAR     44  20  38 E8        29.95R
6HR MIN TEMP:  35; 6HR MAX TEMP:  48;

ST JOSEPH      CLEAR     41  20  43 E8        29.96R
6HR MIN TEMP:  37; 6HR MAX TEMP:  48;

CHILLICOTHE      N/A     28  21  75 E8        30.06R WCI  20
6HR MIN TEMP:  28; 6HR MAX TEMP:  34;

KIRKSVILLE     CLOUDY    21  16  81 E8        30.09R WCI  11
6HR MIN TEMP:  20; 6HR MAX TEMP:  22; 6HR PCP:  0.03;


$$
MOZ066>068-077>081-088>096-101>105-110100-
...SOUTHWEST MISSOURI...

CITY           SKY/WX    TMP DP  RH WIND       PRES   REMARKS
SPRINGFIELD    CLEAR     46  20  35 W3        29.96R
6HR MIN TEMP:  36; 6HR MAX TEMP:  50;

JOPLIN         CLEAR     49  24  37 S9        29.94F
6HR MIN TEMP:  40; 6HR MAX TEMP:  52;


$$
MOZ032>034-039>042-045>050-055>058-069>072-110100-
...CENTRAL MISSOURI...

CITY           SKY/WX    TMP DP  RH WIND       PRES   REMARKS
COLUMBIA       PTCLDY    25  18  74 SE9       30.04S WCI  15
6HR MIN TEMP:  21; 6HR MAX TEMP:  27; 6HR PCP:  0.01;

JEFFERSON CITY CLEAR     27  19  72 E8        30.07R WCI  19
6HR MIN TEMP:  22; 6HR MAX TEMP:  28; 6HR PCP: TRACE;

ROLLA          CLEAR     26  19  74 E15       30.01S WCI  14
6HR MIN TEMP:  20; 6HR MAX TEMP:  28;

SEDALIA        CLEAR     31  20  63 E8        30.02R WCI  23
6HR MIN TEMP:  31; 6HR MAX TEMP:  44;

WHITEMAN AFB   CLEAR     40  19  43 SE3       29.98R
WARRENSBURG    CLEAR     37  19  48 E6        29.98S
OSAGE BEACH    CLEAR     32  18  55 NE12      30.02R WCI  23

$$
MOZ051-052-059>065-110100-
...EAST CENTRAL MISSOURI...

CITY           SKY/WX    TMP DP  RH WIND       PRES   REMARKS
ST LOUIS INTL  FLURRIES  23  16  74 SE3       30.14S
6HR MIN TEMP:  22; 6HR MAX TEMP:  24; 6HR PCP:  0.06;

SPIRIT OF STL  CLOUDY    22  18  85 E5        30.13S WCI  16
6HR MIN TEMP:  21; 6HR MAX TEMP:  23; 6HR PCP:  0.02;

ST CHARLES     CLOUDY    21  18  88 E5        30.15R WCI  15
6HR MIN TEMP:  20; 6HR MAX TEMP:  22; 6HR PCP: TRACE;


$$
MOZ072>076-082>087-097>100-106>115-110100-
...SOUTH CENTRAL AND SOUTHEAST MISSOURI...

CITY           SKY/WX    TMP DP  RH WIND       PRES   REMARKS
CAPE GIRARDEAU CLOUDY    24  19  81 E5        30.17S WCI  18
6HR MIN TEMP:  23; 6HR MAX TEMP:  26; 6HR PCP:  0.01;

FARMINGTON     CLOUDY    24  18  77 SE5       30.11S WCI  18
6HR MIN TEMP:  21; 6HR MAX TEMP:  25;

POPLAR BLUFF   PTCLDY    31  13  47 E7        30.13S WCI  24
6HR MIN TEMP:  27; 6HR MAX TEMP:  32; 6HR PCP:  0.01;

WEST PLAINS    CLEAR     39  13  34 SE5       30.00S
6HR MIN TEMP:  32; 6HR MAX TEMP:  42;


$$




USA.gov is the U.S. government's official web portal to all federal, state and local government web resources and services.